This is the latest recevied weather packets stored in our database for station/object YB3RDW-13. If no packets are shown the sender has not sent any weather packets the latest 10 day(s).
| Time | Temp. | Humidity | Pressure | Rain* | Wind** | Luminosity | Snow |
|---|---|---|---|---|---|---|---|
| 1777870618 | 33.33° C | 63% | 1012 hPa | 0 mm | - | 630 W/m² | - |
| 1777870317 | 33.33° C | 64% | 1012 hPa | 0 mm | - | 657 W/m² | - |
| 1777870017 | 33.33° C | 64% | 1012 hPa | 0 mm | - | 646 W/m² | - |
| 1777869718 | 33.33° C | 65% | 1012 hPa | 0 mm | - | 666 W/m² | - |
| 1777869418 | 32.78° C | 65% | 1012 hPa | 0 mm | - | 654 W/m² | - |
| 1777869119 | 32.78° C | 65% | 1012 hPa | 0 mm | - | 661 W/m² | - |
| 1777868818 | 33.33° C | 65% | 1012 hPa | 0 mm | - | 706 W/m² | - |
| 1777868517 | 32.78° C | 66% | 1013 hPa | 0 mm | - | 729 W/m² | - |
| 1777868218 | 32.78° C | 68% | 1012 hPa | 0 mm | - | 232 W/m² | - |
| 1777867920 | 32.22° C | 68% | 1012 hPa | 0 mm | - | 449 W/m² | - |
| 1777867617 | 32.78° C | 68% | 1012 hPa | 0 mm | - | 680 W/m² | - |
| 1777867317 | 32.78° C | 67% | 1013 hPa | 0 mm | - | 685 W/m² | - |
| 1777867017 | 32.78° C | 68% | 1013 hPa | 0 mm | - | 663 W/m² | - |
| 1777866717 | 32.78° C | 67% | 1013 hPa | 0 mm | - | 234 W/m² | - |
| 1777866418 | 32.78° C | 67% | 1013 hPa | 0 mm | - | 703 W/m² | - |
| 1777866118 | 32.22° C | 70% | 1013 hPa | 0 mm | - | 599 W/m² | - |
| 1777865817 | 31.67° C | 74% | 1013 hPa | 0 mm | - | 533 W/m² | - |
| 1777865518 | 32.22° C | 73% | 1013 hPa | 0 mm | - | 653 W/m² | - |
| 1777865217 | 32.22° C | 72% | 1013 hPa | 0 mm | - | 249 W/m² | - |
| 1777864917 | 31.67° C | 73% | 1013 hPa | 0 mm | - | 360 W/m² | - |
| 1777864617 | 31.67° C | 74% | 1013 hPa | 0 mm | - | 198 W/m² | - |
| 1777864317 | 31.67° C | 74% | 1014 hPa | 0 mm | - | 538 W/m² | - |
| 1777864018 | 31.67° C | 74% | 1014 hPa | 0 mm | - | 309 W/m² | - |
| 1777863718 | 32.22° C | 72% | 1014 hPa | 0 mm | - | 594 W/m² | - |
| 1777863418 | 31.67° C | 75% | 1014 hPa | 0 mm | - | 594 W/m² | - |
* Rain latest hour (hover to see other rain measurements)
** Current wind speed in m/s (hover to see current wind gust speed)